Flag for U.S.A. Weather past 2 weeks in Appleton, Wisconsin, U.S.A.

Now
46 °F

Scattered clouds.


Feels Like: 43 °F
Forecast: 35 / 55 °F
Wind: 7 mph from West

Location: Appleton / Outagamie

Current Time: Mar 31, 2015 at 12:51:05 PM

Latest Report: Mar 31, 2015 at 11:45 AM


Visibility: 10 mi

Pressure: 29.92 "Hg

Humidity: 57%

Dew point: 32 °F

Location of AppletonLocation

Historic Weather in Appleton — Graph

°F

Appleton temperature yesterday

Maximum temperature yesterday: 54 °F (at 12:45 PM)
Minimum temperature yesterday: 30 °F (at 6:45 AM)
Average temperature yesterday: 39 °F

Past Weeks' High & Low Weather Summary

 TemperatureHumidityPressure
High61 °F (Mar 16, 2:45 PM)100% (Mar 22, 8:45 PM)30.37 "Hg (Mar 22, 8:45 PM)
Low16 °F (Mar 27, 5:45 AM)21% (Mar 27, 8:45 AM)29.57 "Hg (Mar 29, 3:45 PM)
Average33 °F63%30.10 "Hg
* Reported Mar 16 11:45 AM — Mar 31 11:45 AM, Appleton, Weather by CustomWeather, © 2015

Note: Actual official high and low records may vary slightly from our data, if they occured in-between our weather recording intervals... More about our weather records

Advertising

Appleton weather history for previous 24 hours

 ConditionsComfort  
Time TempWeatherWind HumidityBarometerVisibility
11:45 AM
Tue, Mar 31
46 °FScattered clouds.7 mph57%29.92 "Hg10 mi
10:45 AM43 °FSunny.No wind66%29.92 "Hg10 mi
9:45 AM39 °FScattered clouds.5 mph70%29.91 "Hg10 mi
8:45 AM36 °FScattered clouds.6 mph87%29.90 "Hg10 mi
7:45 AM32 °FScattered clouds.10 mph93%29.88 "Hg10 mi
6:45 AM32 °FPassing clouds.9 mph93%29.86 "Hg10 mi
5:45 AM34 °FPassing clouds.8 mph100%29.83 "Hg10 mi
5:15 AM34 °FOvercast.8 mph93%29.82 "Hg10 mi
4:55 AM34 °FOvercast.8 mph100%29.83 "Hg10 mi
4:15 AM34 °FMostly cloudy.5 mph100%29.80 "Hg10 mi
3:55 AM34 °FMostly cloudy.6 mph100%29.81 "Hg10 mi
3:15 AM36 °FMostly cloudy.7 mph100%29.81 "Hg10 mi
2:55 AM36 °FMostly cloudy.6 mph100%29.81 "Hg10 mi
2:35 AM37 °FMostly cloudy.6 mph93%29.82 "Hg10 mi
2:15 AM37 °FMostly cloudy.6 mph100%29.82 "Hg10 mi
1:55 AM37 °FMostly cloudy.9 mph100%29.82 "Hg10 mi
1:35 AM37 °FMostly cloudy.8 mph100%29.82 "Hg10 mi
1:15 AM37 °FMostly cloudy.7 mph100%29.82 "Hg10 mi
12:55 AM37 °FMostly cloudy.8 mph100%29.82 "Hg10 mi
12:35 AM37 °FMostly cloudy.7 mph100%29.82 "Hg10 mi
12:15 AM37 °FMostly cloudy.9 mph100%29.83 "Hg10 mi
11:55 PM
Mon, Mar 30
37 °FPassing clouds.8 mph100%29.82 "Hg10 mi
11:35 PM37 °FPartly cloudy.5 mph100%29.83 "Hg10 mi
11:15 PM39 °FLight rain. Overcast.8 mph93%29.83 "Hg10 mi
10:45 PM39 °FMostly cloudy.N/A100%29.84 "Hg10 mi
9:45 PM39 °FLight rain. Mostly cloudy.7 mph100%29.85 "Hg7 mi
8:45 PM41 °FOvercast.No wind93%29.84 "Hg10 mi
7:45 PM41 °FLight rain. Partly sunny.8 mph93%29.85 "Hg7 mi
5:45 PM46 °FLight rain. Mostly cloudy.12 mph66%29.88 "Hg7 mi
4:45 PM50 °FOvercast.17 mph47%29.88 "Hg10 mi
3:45 PM54 °FMostly cloudy.14 mph33%29.90 "Hg10 mi
2:45 PM54 °FBroken clouds.16 mph28%29.92 "Hg10 mi
1:45 PM54 °FBroken clouds.15 mph30%29.93 "Hg10 mi
12:45 PM54 °FBroken clouds.12 mph30%29.94 "Hg10 mi
Weather by CustomWeather, © 2015

See weather overviewHow to use our weather pages